Location: Goettingen
(51.5300°N, 9.9433°E)
Time: 11:41:04
(UTC+02:00)

ISS - Pass Details

Date: 25 September 2020
Orbit: 419 x 420 km, 51.6° (Epoch: 18 September)

Event Time Altitude Azimuth Distance (km) Brightness Sun altitude
Rises 20:55:52 0° 269° (W) 2,367 1.4 -16.9°
Reaches altitude 10° 20:57:58 10° 270° (W) 1,503 0.1 -17.2°
Maximum altitude 21:01:21 86° 0° (N) 426 -3.8 -17.7°
Enters shadow 21:02:01 55° 84° (E) 514 -3.7 -17.8°
